Temp
19 19 20 20 20 21 22 22 23 23 24 24 24 24 26 27 27 26 28 29 29 28 28 27 26 26 27 27 26 25 30 30 30 30 30 30 30 29 29 29 29 28 28 27 23
19 20 20 20 21 21 22 22 23 23 24 24 25 25 26 27 26 26 29 29 29 28 27 28 27 27 28 28 28 28 30 31 31 31 31 30 30 30 29 29 28 26 26 24 23
19 20 20 21 21 22 22 23 23 23 24 24 25 25 26 26 27 31 30 30 29 28 28 28 28 28 29 29 29 29 31 30 31 32 32 31 30 30 30 29 29 27 26 25 24
19 19 20 21 21 22 22 23 23 23 24 24 25 25 26 26 30 30 30 30 29 29 28 29 29 29 30 30 29 31 30 31 31 32 32 31 31 30 30 31 30 29 27 26 26
19 19 20 21 22 22 23 23 23 24 24 24 25 25 26 29 31 30 30 30 29 29 29 30 30 30 30 30 29 30 32 32 32 32 32 31 31 31 30 30 30 28 27 27 27
17 19 19 21 22 23 23 23 24 24 24 24 25 26 25 31 29 29 29 30 29 28 29 29 30 30 30 30 30 31 31 31 32 32 32 32 31 31 30 29 28 27 27 27 27
16 17 19 21 22 22 23 23 24 24 24 24 25 25 27 31 29 29 29 29 29 28 30 30 30 31 31 30 30 31 32 33 32 32 32 32 31 31 30 29 28 28 28 28 27
14 15 19 21 22 23 23 24 24 24 24 24 24 25 30 29 29 29 28 29 29 29 29 30 30 31 30 30 31 31 31 31 32 32 31 33 31 32 30 29 29 28 28 28 28
14 15 19 21 22 23 23 24 24 24 24 24 24 25 31 28 28 29 29 30 29 29 29 30 30 28 30 31 30 29 30 30 31 32 32 32 32 32 30 29 29 29 28 28 28
14 16 19 22 23 23 23 23 23 24 24 24 23 28 30 31 29 29 29 29 30 31 31 30 29 29 29 30 30 30 30 30 31 30 32 31 32 31 30 30 30 30 29 29 29
14 16 20 22 23 23 23 23 26 27 24 30 30 30 31 30 30 30 30 30 30 31 31 29 32 30 29 30 30 29 28 30 31 32 31 32 32 33 30 30 31 30 30 30 30
15 18 20 23 23 24 23 25 27 27 30 27 28 29 29 31 32 31 30 32 31 30 29 31 31 30 30 30 30 30 30 31 31 31 30 31 31 32 31 30 31 31 31 30 31
16 19 21 23 24 23 23 25 25 26 30 30 29 30 32 33 32 32 32 30 30 29 29 30 31 29 30 30 31 30 31 30 30 31 30 29 31 31 30 30 30 31 31 31 31
18 20 23 23 21 23 24 26 25 25 32 32 32 33 31 33 32 31 32 32 29 29 29 30 30 30 30 30 30 31 30 30 30 31 31 29 31 31 30 29 29 29 30 30 31
19 22 23 23 22 23 25 25 25 26 30 32 32 32 32 33 32 31 30 32 31 29 29 30 30 30 30 31 30 30 30 30 30 30 29 30 30 33 28 31 30 29 30 30 31
21 23 23 22 23 26 25 25 26 32 30 32 32 32 33 33 32 31 31 31 29 29 29 29 29 30 31 31 30 30 30 29 29 28 29 28 29 34 33 30 30 29 29 29 29
23 24 23 23 26 25 26 27 31 32 30 32 32 32 32 32 32 32 31 31 32 30 30 30 30 30 30 30 30 30 29 31 31 29 31 27 28 33 31 30 28 28 28 29 28
25 25 24 26 26 26 25 31 30 31 31 31 30 31 32 32 32 32 31 32 30 31 31 31 33 30 30 31 31 29 30 31 30 32 33 26 31 35 29 27 26 26 27 26 26
25 24 25 25 27 26 30 30 31 31 31 32 31 32 32 32 32 32 31 32 33 31 32 31 31 30 30 30 31 29 29 31 31 27 30 32 31 33 29 30 27 26 26 25 25
24 24 24 26 26 26 30 28 29 29 31 32 32 32 32 32 32 32 31 32 32 31 32 32 31 31 31 31 29 31 31 31 30 30 30 32 30 33 34 32 28 27 27 25 23
24 28 25 26 26 29 30 29 29 30 30 32 32 31 32 32 32 31 32 32 31 30 30 31 32 32 30 31 32 30 31 29 30 30 31 30 32 32 31 30 28 28 27 25 23
24 29 25 26 29 21 29 27 26 31 30 32 32 32 32 31 31 31 32 31 30 31 31 30 31 32 32 30 29 31 31 32 31 31 29 29 30 30 29 28 26 27 26 24 23
25 26 25 26 30 29 27 29 29 31 30 32 32 31 30 30 31 30 30 31 29 31 31 30 31 32 32 32 30 32 30 29 29 28 30 30 31 30 29 29 29 26 25 21 20
25 28 27 24 22 28 28 29 31 30 30 29 30 30 30 30 28 30 31 31 29 29 24 29 30 32 32 32 31 31 30 30 30 30 31 30 31 31 32 32 31 27 25 21 20
22 24 22 28 27 26 26 27 30 31 30 29 30 30 31 30 30 31 30 31 31 27 28 31 31 29 30 30 29 31 31 31 29 31 29 31 31 31 32 28 27 27 24 23 22
24 24 21 23 22 26 24 28 29 30 30 30 31 30 30 31 31 31 30 30 31 30 30 28 30 28 30 31 29 29 30 30 30 30 29 29 29 31 27 25 25 23 23 23 23
15 16 21 20 24 27 28 28 29 28 29 30 30 30 30 30 29 30 30 29 29 29 30 29 29 28 29 28 28 28 30 31 31 30 31 30 32 26 27 25 23 23 23 23 23
Height
789 787 784 783 782 781 780 779 778 777 778 778 778 779 779 778 777 777 776 775 774 776 776 777 779 779 779 779 779 780 791 800 797 796 794 789 793 790 789 795 796 797 799 803 812
788 786 783 782 781 781 780 779 778 777 777 777 777 778 778 778 777 776 774 774 774 776 777 778 778 778 779 780 779 783 793 793 782 781 785 787 788 790 795 798 800 802 803 808 813
787 785 782 780 779 779 779 779 778 777 777 777 777 777 777 777 777 771 772 773 774 776 777 777 777 777 781 780 781 783 791 783 780 775 776 783 789 786 793 801 795 800 802 806 812
786 784 781 780 778 777 778 777 777 778 777 777 777 777 777 777 791 771 772 774 775 777 777 777 777 781 784 787 781 787 780 779 779 775 777 785 783 790 789 788 785 793 799 804 808
785 782 779 778 777 776 776 777 776 777 777 777 777 777 777 777 774 771 771 775 776 777 777 776 779 780 787 783 785 785 778 776 774 774 776 779 786 788 791 786 788 796 802 805 808
784 781 778 776 775 775 775 775 776 777 777 777 777 777 777 780 773 772 773 775 776 777 778 777 779 778 781 784 787 779 778 777 775 776 777 785 787 786 789 789 793 797 800 803 807
783 779 777 775 774 773 774 774 774 775 776 777 777 777 777 776 773 774 775 776 777 778 777 776 776 778 778 786 779 779 786 777 780 779 783 779 795 792 784 788 792 796 799 802 804
781 778 775 774 773 772 773 774 774 775 776 777 777 777 776 773 773 774 776 777 778 778 778 777 776 776 779 778 781 788 789 802 787 780 782 782 802 782 782 786 792 794 796 800 802
779 776 774 773 772 771 772 773 774 775 776 777 778 777 775 774 774 775 777 778 778 779 779 778 778 784 781 788 801 798 811 808 798 781 784 788 794 780 781 785 789 792 793 794 798
777 774 772 772 772 772 772 773 775 776 777 778 778 781 772 772 773 775 777 778 779 778 780 780 783 792 794 797 820 811 810 807 805 793 785 790 787 780 781 783 783 786 789 790 793
774 772 771 771 771 772 773 774 778 779 777 771 771 771 768 770 773 776 776 777 778 780 792 788 792 807 802 795 795 800 809 804 793 782 790 784 781 775 778 782 782 781 783 784 783
771 770 770 770 771 772 773 773 773 774 775 771 771 771 770 769 774 774 776 780 783 795 792 792 801 793 788 790 797 800 805 801 790 785 791 786 783 771 773 774 774 774 777 777 779
769 768 768 770 770 772 772 772 772 772 775 772 769 768 767 767 773 775 774 778 788 797 797 800 792 791 792 794 797 799 801 803 802 790 790 795 785 778 771 770 771 770 771 773 774
768 767 768 769 774 771 771 769 769 770 780 779 770 765 766 764 776 770 772 776 789 799 798 795 788 794 796 799 796 805 797 797 799 800 810 798 809 780 775 774 773 770 770 768 768
766 766 767 770 769 770 770 768 766 769 815 776 770 762 763 768 771 776 774 775 790 797 798 799 795 797 800 797 793 806 794 799 798 804 807 804 812 776 780 774 772 766 763 762 763
765 765 767 769 769 769 767 766 768 788 818 783 769 772 773 771 773 775 776 776 783 792 795 795 787 790 789 787 789 790 798 804 805 812 826 815 814 780 771 773 766 763 760 760 762
763 765 767 767 768 768 767 768 788 801 783 787 781 772 776 783 780 779 785 790 795 809 806 794 794 786 784 796 792 796 808 819 823 826 817 816 817 779 766 764 768 764 759 757 758
762 764 765 766 767 767 768 773 805 791 786 774 777 779 784 780 780 782 787 792 787 789 802 806 805 789 781 787 793 802 803 814 837 821 808 815 806 768 766 765 765 764 759 758 759
762 764 766 766 765 766 768 795 789 785 777 778 778 786 789 783 783 785 787 784 776 780 799 804 801 780 779 780 783 805 810 794 807 823 820 795 785 761 761 760 765 766 766 765 765
761 764 766 765 766 766 776 795 784 776 772 773 785 782 791 787 789 788 792 778 778 775 772 784 803 781 781 778 785 786 786 806 810 828 827 800 803 780 759 761 764 765 762 764 769
762 764 767 767 767 769 784 786 779 768 769 773 781 787 786 788 787 792 791 779 775 781 776 781 789 791 786 787 785 795 795 804 803 809 814 817 796 766 767 761 763 760 761 765 769
762 772 768 768 776 795 783 782 776 767 764 767 769 774 780 787 790 791 790 784 775 774 784 783 786 796 789 784 783 782 787 787 802 810 811 813 799 763 761 759 761 757 759 766 766
766 771 769 768 783 783 781 777 774 771 773 770 773 773 776 786 793 789 786 774 775 776 783 783 793 800 796 788 784 785 787 793 796 801 801 808 790 758 758 754 749 755 757 766 772
765 776 773 774 783 780 782 780 777 768 772 773 775 773 780 788 788 788 784 776 775 777 784 777 791 790 800 791 788 792 788 788 787 798 789 789 777 763 753 747 743 749 754 766 768
768 778 780 780 782 781 783 783 780 778 770 771 775 776 778 790 789 788 783 778 773 778 778 776 789 793 786 787 788 783 782 780 791 779 792 774 773 760 750 754 752 749 756 761 766
770 775 781 783 785 782 787 781 779 776 775 777 776 777 777 782 779 785 782 783 780 775 777 780 790 794 788 779 785 790 779 776 775 775 780 772 772 747 754 756 753 755 757 758 761
781 781 779 790 782 781 778 778 777 777 772 769 771 774 778 775 773 771 769 774 776 779 778 782 787 796 796 791 791 794 777 770 765 763 762 771 752 757 753 756 756 754 756 755 757
Wind_Speed
13 12 11 11 9 8 6 4 2 1 0 0 1 0 1 2 4 4 4 2 5 10 9 9 2 4 1 2 1 1 3 3 2 4 6 11 5 5 3 12 3 2 7 16 22
13 12 11 11 9 7 5 3 2 1 1 1 1 0 1 2 3 5 0 5 8 12 8 5 4 3 1 2 0 3 2 2 1 2 5 14 10 10 7 9 4 9 14 24 21
14 12 11 11 10 8 5 3 1 1 2 1 1 1 2 2 2 1 7 7 8 9 6 2 5 1 2 3 3 2 2 0 2 1 8 13 9 5 11 6 8 17 20 22 21
15 13 11 10 9 8 5 3 0 1 2 1 2 2 1 1 3 2 8 11 11 8 4 4 2 1 2 3 2 1 1 2 3 4 5 9 9 5 11 2 8 19 21 22 18
16 13 11 9 9 7 4 2 0 1 1 1 1 1 1 2 1 4 14 12 12 7 3 3 1 1 3 2 2 2 2 2 1 3 5 9 7 2 8 5 14 18 19 18 17
17 13 11 9 8 6 3 1 1 2 2 1 1 1 0 2 3 6 17 12 8 6 2 2 1 0 2 1 1 4 6 2 2 2 3 7 5 5 6 12 16 19 18 17 16
18 14 10 7 6 5 2 1 2 2 2 3 2 1 1 3 3 11 12 6 6 2 1 3 2 1 1 3 1 2 4 7 8 4 3 7 5 8 9 15 18 19 16 16 17
18 14 9 6 5 4 1 2 3 4 3 4 2 1 1 2 4 12 8 3 2 5 4 7 3 2 1 2 2 1 2 2 5 2 3 8 7 6 14 17 17 18 16 16 17
18 13 7 4 3 2 2 3 4 5 5 5 2 1 3 3 4 11 8 2 3 3 3 4 2 2 1 1 2 4 4 2 2 5 2 4 7 5 13 17 16 17 17 17 17
16 11 6 3 2 2 4 7 7 6 4 2 1 2 1 3 6 10 9 5 3 4 2 2 3 2 3 3 1 2 2 2 2 2 3 6 13 5 14 17 19 18 17 17 17
15 8 3 2 3 6 10 5 2 3 2 2 1 1 2 4 8 5 6 5 2 3 1 2 1 3 4 5 6 6 4 4 7 7 5 12 14 12 14 16 17 18 18 19 20
12 6 1 4 6 9 6 2 1 3 2 4 3 4 4 2 5 4 7 3 1 2 2 1 1 7 6 4 4 2 2 3 7 5 5 8 16 10 15 21 21 21 19 20 20
9 3 2 7 8 7 5 3 2 2 1 1 3 3 3 7 4 8 7 3 3 1 1 2 2 4 4 3 6 2 1 1 4 6 2 9 9 5 9 15 17 19 19 19 19
6 1 6 8 6 4 3 3 8 5 1 2 1 3 5 6 4 2 5 2 2 1 2 4 2 2 3 5 1 4 4 5 5 4 4 6 6 5 1 8 17 19 19 20 21
2 4 8 7 7 3 1 11 4 3 3 2 3 4 3 4 8 3 2 2 2 3 3 3 2 3 4 2 2 2 3 4 3 2 7 3 4 5 1 5 10 17 19 21 21
2 7 9 6 3 1 10 9 2 1 3 3 3 4 7 2 3 4 2 6 3 1 0 3 1 4 4 2 1 4 2 4 3 1 2 2 3 8 3 2 4 4 15 17 15
4 10 12 7 2 2 3 2 0 1 2 4 3 5 5 3 4 6 7 7 5 1 1 2 3 2 4 4 1 4 1 3 2 1 2 0 4 11 4 7 7 9 7 12 13
6 10 8 6 2 4 1 0 1 1 2 3 2 5 5 5 2 4 5 6 6 5 2 4 4 7 9 5 1 5 3 3 5 5 6 2 5 4 2 4 4 4 3 3 6
8 7 1 3 4 3 1 1 2 3 1 4 4 4 4 2 3 4 6 5 5 13 7 4 4 2 6 4 4 6 6 1 3 1 4 2 5 10 2 3 1 2 2 3 3
6 4 3 2 3 1 2 2 2 3 1 3 3 1 4 2 4 2 1 2 1 5 5 1 6 2 2 4 3 3 5 3 2 4 7 4 5 6 12 12 8 5 7 5 4
4 3 6 2 3 3 1 2 3 4 4 2 3 4 3 3 2 2 2 1 2 2 5 5 4 1 3 5 4 4 4 2 0 3 6 8 6 2 10 11 13 9 7 5 5
2 2 2 4 1 1 1 2 2 3 3 1 3 3 2 4 4 4 2 3 5 3 4 3 2 4 0 2 3 2 2 2 3 5 3 4 8 3 8 12 10 9 6 5 5
2 2 2 2 2 0 2 2 2 2 3 2 2 3 3 2 1 2 1 1 6 3 4 7 3 3 3 4 3 3 3 3 2 1 9 9 10 3 9 13 11 7 9 10 6
2 3 1 3 1 1 1 2 1 1 2 3 2 2 3 2 1 2 1 0 3 2 3 3 2 5 9 5 1 4 5 6 6 6 14 12 19 15 15 16 16 7 8 9 10
3 2 2 3 2 1 1 1 0 2 2 2 2 1 4 3 2 2 1 2 2 2 1 1 3 3 4 4 4 7 9 10 10 15 11 19 17 17 18 15 15 11 5 8 7
2 1 1 2 1 4 1 2 2 2 1 1 4 3 3 3 5 5 4 3 4 2 1 1 3 2 6 8 9 11 13 14 16 16 14 18 15 14 6 10 8 2 3 7 6
4 1 2 1 3 3 3 3 3 2 2 1 3 3 3 1 3 4 4 2 2 3 3 2 3 3 14 4 6 11 15 16 12 8 8 12 13 5 12 9 7 5 6 8 7
Wind_Direction
349 345 342 339 341 341 336 337 350 327 260 163 197 228 234 277 287 282 245 164 146 129 128 125 144 157 215 88 75 181 66 81 93 187 120 152 142 150 97 141 138 68 150 141 153
346 341 339 336 336 334 331 332 338 308 258 285 273 296 274 302 283 257 223 143 140 134 125 151 161 158 64 21 356 61 92 83 90 241 160 163 160 152 144 156 132 105 121 140 155
346 338 335 331 330 329 325 321 316 240 235 252 253 266 273 325 235 252 177 154 151 157 150 170 135 251 59 5 0 94 89 344 169 151 149 158 160 149 154 198 190 162 152 155 164
344 337 330 328 325 324 325 322 259 191 225 245 237 269 286 23 105 185 167 159 153 152 143 158 174 119 72 56 336 6 258 264 80 111 121 157 151 151 172 310 177 162 160 162 172
341 333 328 322 320 321 323 317 206 171 201 215 231 275 173 205 335 337 159 155 161 176 191 183 107 71 84 122 167 268 349 238 325 88 76 146 165 140 196 120 142 154 162 175 183
339 329 323 315 317 318 315 271 168 165 168 171 175 165 321 115 355 131 157 159 173 192 201 188 103 155 98 169 243 344 335 313 38 225 136 163 159 172 172 144 150 165 174 180 190
339 329 318 310 311 310 288 193 156 162 155 153 147 163 233 70 7 151 159 170 176 182 304 320 278 201 214 174 97 349 115 104 39 107 136 168 199 227 166 166 165 176 182 187 197
338 330 315 306 302 293 238 164 152 147 146 139 134 146 230 319 145 163 149 165 192 229 305 343 355 340 27 322 65 68 69 72 2 5 103 200 258 218 174 174 179 183 184 195 202
337 329 312 293 289 256 180 133 126 122 132 129 98 321 133 130 145 167 162 123 182 227 321 255 34 64 261 164 89 12 111 55 160 26 133 219 271 209 180 187 184 190 192 195 205
336 327 306 274 243 176 141 122 114 112 119 100 77 241 217 103 139 151 164 102 143 137 190 22 28 58 45 21 40 62 143 98 260 278 258 251 263 232 194 200 194 196 199 201 205
333 325 296 221 175 147 134 125 181 139 190 246 127 55 62 96 131 139 160 168 111 92 268 28 348 92 116 130 149 145 173 195 230 227 248 248 253 246 201 211 212 205 204 208 209
331 319 267 167 162 163 161 222 68 58 237 227 255 285 244 204 123 117 153 185 166 77 309 241 242 199 202 200 147 154 306 280 287 280 270 310 269 252 207 212 214 213 211 214 216
330 309 154 162 160 166 201 203 106 301 242 161 195 202 185 175 135 162 179 139 78 123 319 252 281 185 235 185 197 169 231 233 297 338 222 312 274 254 236 226 222 227 225 227 224
327 201 158 159 142 164 232 217 285 207 152 128 187 134 145 160 118 132 164 117 86 180 210 275 350 231 233 272 279 35 6 338 314 317 309 359 309 289 240 230 224 229 225 227 224
325 165 165 160 134 177 166 306 144 168 120 128 108 129 151 177 130 137 39 133 189 160 257 28 249 294 301 2 83 48 44 20 348 307 314 8 278 283 254 273 244 238 232 231 232
173 161 170 184 218 181 326 138 151 228 121 135 119 156 152 94 103 116 152 72 82 130 160 272 280 232 249 340 131 105 354 38 53 46 265 302 261 287 316 245 292 305 236 231 228
172 168 177 174 133 344 124 180 218 103 328 153 144 168 158 143 171 176 179 182 212 247 340 286 213 220 214 250 149 198 282 301 254 237 322 31 233 269 246 283 295 293 279 236 228
159 174 202 196 186 330 158 57 91 114 212 78 111 110 187 168 207 175 166 220 221 219 239 289 279 190 174 222 152 176 213 267 294 308 328 158 243 311 40 279 274 291 273 203 200
139 155 160 345 290 221 109 153 199 185 124 157 138 150 180 192 235 210 223 245 217 194 217 211 257 157 194 158 200 143 212 62 259 199 263 297 266 280 281 330 259 234 222 147 181
128 131 38 98 69 71 88 229 224 220 215 193 151 268 193 206 211 201 236 136 338 210 256 257 279 234 119 156 111 258 137 216 188 266 285 282 281 289 323 357 349 271 226 185 150
117 114 1 148 4 54 181 248 277 220 214 195 152 134 187 176 203 192 304 357 27 84 179 169 240 150 194 209 196 154 194 100 199 282 298 300 285 290 300 315 313 300 239 193 160
109 97 13 353 48 17 177 218 327 330 47 203 102 96 129 143 162 191 216 268 351 197 169 171 221 256 53 345 294 280 131 193 270 294 237 285 283 242 273 301 297 298 205 191 167
86 91 14 14 172 22 304 286 288 330 31 23 94 43 54 99 170 198 193 164 358 166 192 178 212 248 187 169 165 228 153 129 123 175 261 286 292 230 291 291 288 265 180 150 158
124 117 38 63 27 95 2 36 134 79 81 56 103 119 111 98 70 197 230 350 12 89 85 155 159 258 274 300 12 224 206 206 241 266 287 269 290 298 295 300 303 267 193 163 157
20 97 354 168 169 131 175 335 126 147 78 45 101 94 156 155 177 213 218 283 207 76 127 260 273 212 248 238 234 263 258 238 229 257 266 291 294 288 299 313 315 323 194 175 156
68 131 89 99 134 162 165 189 181 156 234 150 172 158 182 173 212 216 199 220 256 178 46 25 265 217 260 266 245 259 261 261 259 265 258 271 278 290 307 317 328 335 207 200 188
20 39 294 105 140 181 195 182 183 184 147 125 166 179 227 329 319 301 240 347 317 280 273 249 213 230 274 295 292 268 250 252 263 238 256 276 304 338 316 333 327 289 240 228 209